MDT,Max TemperatureF,Mean TemperatureF,Min TemperatureF,Max Dew PointF,MeanDew PointF,Min DewpointF,Max Humidity, Mean Humidity, Min Humidity, Max Sea Level PressureIn, Mean Sea Level PressureIn, Min Sea Level PressureIn, Max VisibilityMiles, Mean VisibilityMiles, Min VisibilityMiles, Max Wind SpeedMPH, Mean Wind SpeedMPH, Max Gust SpeedMPH,PrecipitationIn, CloudCover, Events, WindDirDegrees
2013-10-1,67,54,40,32,29,25,62,42,22,29.93,29.82,29.69,10,10,10,28,13,35,0.00,1,,264
2013-10-2,61,48,35,33,29,26,82,55,27,30.08,30.03,29.95,10,10,10,20,8,24,0.00,0,,293
2013-10-3,50,44,37,34,31,25,85,65,45,30.41,30.23,30.06,10,10,10,20,11,24,0.00,4,,21
2013-10-4,51,40,28,29,25,22,85,59,33,30.54,30.46,30.39,10,10,10,17,8,23,0.00,1,,25
2013-10-5,63,44,24,32,27,20,81,53,25,30.39,30.22,30.10,10,10,10,15,6,22,0.00,0,,194
2013-10-6,73,54,34,38,35,30,82,55,27,30.10,30.03,29.93,10,10,10,20,8,23,0.00,0,,300
2013-10-7,78,58,38,41,34,27,85,50,15,29.91,29.73,29.59,10,10,10,14,8,21,0.00,0,,134
2013-10-8,64,53,41,33,29,27,58,42,25,29.92,29.75,29.64,10,10,10,25,8,29,0.00,0,,282
2013-10-9,60,45,30,36,33,27,92,66,40,30.15,30.04,29.92,10,10,10,15,7,17,0.00,2,,15
2013-10-10,66,54,42,42,38,32,89,63,37,29.88,29.75,29.67,10,10,10,17,9,23,0.00,3,,89
2013-10-11,57,47,37,37,30,21,92,59,26,29.99,29.86,29.75,10,10,10,33,17,44,0.00,4,,318
2013-10-12,55,42,29,28,25,22,85,57,28,30.27,30.15,30.00,10,10,10,15,7,20,0.00,3,,322
2013-10-13,57,45,33,25,24,23,69,48,27,30.33,30.28,30.23,10,10,10,16,10,32,0.00,7,,89
2013-10-14,54,42,30,25,22,20,64,46,28,30.41,30.34,30.27,10,10,10,23,12,30,0.00,4,,28
2013-10-15,57,39,21,28,24,20,92,61,30,30.41,30.27,30.06,10,10,10,14,6,18,0.00,0,,263
2013-10-16,56,41,25,39,31,21,100,71,41,30.19,30.06,29.99,10,10,9,26,7,32,0.05,4,Rain,317
2013-10-17,49,36,22,36,31,21,100,75,49,30.25,30.17,30.06,10,10,4,25,6,30,0.08,4,Rain,301
2013-10-18,54,43,32,35,33,29,100,69,38,30.17,30.04,29.89,10,10,9,20,8,24,0.00,7,,280
2013-10-19,61,47,33,36,34,31,89,63,36,29.89,29.80,29.71,10,10,10,29,11,36,0.00,2,,293
2013-10-20,46,41,36,38,35,30,92,79,65,30.10,30.02,29.85,10,10,7,23,7,30,0.02,8,Rain,315
2013-10-21,59,49,38,46,40,36,100,74,47,30.05,29.99,29.91,10,10,7,24,8,32,0.08,6,Rain,306
2013-10-22,55,48,40,42,40,37,92,72,51,30.15,30.09,30.03,10,10,10,8,4,,0.00,6,,55
2013-10-23,49,39,29,40,34,27,100,77,53,30.36,30.26,30.07,10,10,10,14,8,17,0.00,4,,349
2013-10-24,51,37,23,35,30,22,92,71,50,30.40,30.28,30.08,10,10,10,15,9,18,0.00,0,,113
2013-10-25,62,47,31,38,30,17,100,64,27,30.30,30.15,30.02,10,10,10,24,10,32,0.00,0,,334
2013-10-26,65,44,22,32,25,17,81,54,27,30.32,30.14,29.91,10,10,7,12,5,15,0.00,0,,279
2013-10-27,46,37,28,31,26,22,85,67,49,30.44,30.10,29.87,10,10,9,26,15,33,T,4,,57
2013-10-28,30,26,22,22,19,15,88,73,58,30.56,30.46,30.33,10,8,2,22,15,26,0.01,8,Snow,88
2013-10-29,32,28,24,29,26,21,92,88,84,30.38,30.13,29.93,10,10,5,17,11,21,0.00,8,Snow,118
2013-10-30,48,36,23,30,26,22,100,73,46,29.97,29.82,29.68,10,10,10,14,7,16,0.00,0,,230
2013-10-31,52,40,27,36,31,26,100,72,44,29.79,29.72,29.64,10,10,8,23,10,29,T,3,,296